| time (UTC) | temp C | wind direction | speed KPH | gust KPH | rain 1hr cm | rain 24hr cm | rain mn cm | humidity % | barometer mb |
| 20260506184904 | 15 | 3 | 6.4 | 12.9 | 0.00 | 0.00 | 0.00 | 51 | 1015.6 |
| 20260506183404 | 15 | 356 | 0.0 | 11.3 | 0.00 | 0.00 | 0.00 | 55 | 1015.6 |
| 20260506182905 | 15 | 320 | 3.2 | 9.7 | 0.00 | 0.00 | 0.00 | 52 | 1015.5 |
| 20260506182404 | 16 | 324 | 1.6 | 11.3 | 0.00 | 0.00 | 0.00 | 51 | 1015.6 |
| 20260506181904 | 16 | 20 | 8.0 | 12.9 | 0.00 | 0.00 | 0.00 | 50 | 1015.7 |
| 20260506181404 | 15 | 0 | 0.0 | 9.7 | 0.00 | 0.00 | 0.00 | 51 | 1015.8 |
| 20260506180904 | 15 | 6 | 8.0 | 14.5 | 0.00 | 0.00 | 0.00 | 50 | 1015.8 |
| 20260506180404 | 15 | 356 | 0.0 | 11.3 | 0.00 | 0.00 | 0.00 | 52 | 1015.7 |
| 20260506175904 | 15 | 305 | 0.0 | 1.6 | 0.00 | 0.00 | 0.00 | 50 | 1015.6 |
| 20260506175404 | 15 | 5 | 0.0 | 0.0 | 0.00 | 0.00 | 0.00 | 55 | 1015.6 |
| 20260506174904 | 15 | 4 | 0.0 | 0.0 | 0.00 | 0.00 | 0.00 | 56 | 1015.6 |
| 20260506174404 | 15 | 353 | 0.0 | 0.0 | 0.00 | 0.00 | 0.00 | 60 | 1015.6 |
| 20260506173904 | 14 | 8 | 0.0 | 0.0 | 0.00 | 0.00 | 0.00 | 60 | 1015.5 |
| 20260506173404 | 14 | 332 | 0.0 | 0.0 | 0.00 | 0.00 | 0.00 | 59 | 1015.6 |
| 20260506172904 | 14 | 347 | 0.0 | 0.0 | 0.00 | 0.00 | 0.00 | 57 | 1015.5 |
| 20260506172404 | 14 | 29 | 0.0 | 0.0 | 0.00 | 0.00 | 0.00 | 62 | 1015.5 |
| 20260506171904 | 13 | 303 | 0.0 | 0.0 | 0.00 | 0.00 | 0.00 | 59 | 1015.8 |
| 20260506170904 | 13 | 32 | 0.0 | 0.0 | 0.00 | 0.00 | 0.00 | 61 | 1015.9 |
| 20260506170404 | 13 | 24 | 0.0 | 0.0 | 0.00 | 0.00 | 0.00 | 63 | 1015.8 |
| 20260506165904 | 13 | 7 | 0.0 | 0.0 | 0.00 | 0.00 | 0.00 | 60 | 1015.9 |
| 20260506165404 | 13 | 350 | 0.0 | 0.0 | 0.00 | 0.00 | 0.00 | 64 | 1016.1 |
| 20260506164405 | 12 | 0 | 0.0 | 0.0 | 0.00 | 0.00 | 0.00 | 65 | 1016.0 |
| 20260506163904 | 12 | 333 | 0.0 | 0.0 | 0.00 | 0.00 | 0.00 | 64 | 1015.9 |
| 20260506163404 | 12 | 21 | 0.0 | 0.0 | 0.00 | 0.00 | 0.00 | 63 | 1015.9 |
| 20260506162904 | 12 | 56 | 0.0 | 0.0 | 0.00 | 0.00 | 0.00 | 66 | 1015.7 |
| 20260506162404 | 12 | 24 | 0.0 | 0.0 | 0.00 | 0.00 | 0.00 | 66 | 1015.7 |
| 20260506161904 | 12 | 346 | 0.0 | 0.0 | 0.00 | 0.00 | 0.00 | 66 | 1016.0 |
| 20260506160404 | 12 | 345 | 0.0 | 0.0 | 0.00 | 0.00 | 0.00 | 66 | 1016.0 |
| 20260506155904 | 12 | 15 | 0.0 | 0.0 | 0.00 | 0.00 | 0.00 | 68 | 1016.0 |
| 20260506155404 | 12 | 35 | 0.0 | 0.0 | 0.00 | 0.00 | 0.00 | 67 | 1016.0 |
| 20260506154404 | 12 | 37 | 0.0 | 0.0 | 0.00 | 0.00 | 0.00 | 67 | 1015.7 |
| 20260506153904 | 12 | 10 | 0.0 | 0.0 | 0.00 | 0.00 | 0.00 | 67 | 1015.9 |
| 20260506153404 | 12 | 16 | 0.0 | 0.0 | 0.00 | 0.00 | 0.00 | 67 | 1015.6 |
| 20260506152904 | 12 | 25 | 0.0 | 0.0 | 0.00 | 0.00 | 0.00 | 67 | 1015.6 |
| 20260506152404 | 12 | 19 | 0.0 | 3.2 | 0.00 | 0.00 | 0.00 | 68 | 1015.7 |
| 20260506151904 | 12 | 7 | 3.2 | 8.0 | 0.00 | 0.00 | 0.00 | 68 | 1015.9 |
| 20260506151403 | 12 | 8 | 0.0 | 0.0 | 0.00 | 0.00 | 0.00 | 68 | 1015.8 |
| 20260506150904 | 12 | 8 | 0.0 | 0.0 | 0.00 | 0.00 | 0.00 | 67 | 1015.7 |
| 20260506150404 | 12 | 8 | 0.0 | 0.0 | 0.00 | 0.00 | 0.00 | 66 | 1015.6 |
| 20260506145904 | 12 | 7 | 0.0 | 0.0 | 0.00 | 0.00 | 0.00 | 69 | 1015.6 |
| 20260506144903 | 12 | 9 | 0.0 | 3.2 | 0.00 | 0.00 | 0.00 | 68 | 1015.8 |
| 20260506143904 | 12 | 12 | 0.0 | 3.2 | 0.00 | 0.00 | 0.00 | 70 | 1015.2 |
| 20260506143404 | 12 | 0 | 0.0 | 9.7 | 0.00 | 0.00 | 0.00 | 70 | 1015.2 |
| 20260506142903 | 12 | 9 | 4.8 | 11.3 | 0.00 | 0.00 | 0.00 | 72 | 1015.2 |
| 20260506142404 | 11 | 8 | 4.8 | 9.7 | 0.00 | 0.00 | 0.00 | 73 | 1014.9 |
| 20260506141904 | 11 | 22 | 1.6 | 8.0 | 0.00 | 0.00 | 0.00 | 73 | 1014.9 |
| 20260506141404 | 11 | 20 | 3.2 | 19.3 | 0.00 | 0.00 | 0.00 | 73 | 1014.8 |
| 20260506140404 | 11 | 29 | 0.0 | 9.7 | 0.00 | 0.00 | 0.00 | 76 | 1014.8 |
| 20260506135904 | 10 | 5 | 0.0 | 8.0 | 0.00 | 0.00 | 0.00 | 76 | 1014.5 |
| 20260506135404 | 10 | 33 | 4.8 | 11.3 | 0.00 | 0.00 | 0.00 | 77 | 1014.5 |
| 20260506134904 | 10 | 7 | 3.2 | 12.9 | 0.00 | 0.00 | 0.00 | 78 | 1014.5 |
| 20260506133403 | 10 | 11 | 4.8 | 11.3 | 0.00 | 0.00 | 0.00 | 80 | 1014.0 |
| 20260506132404 | 9 | 22 | 0.0 | 0.0 | 0.00 | 0.00 | 0.00 | 80 | 1014.2 |
| 20260506131904 | 9 | 20 | 0.0 | 1.6 | 0.00 | 0.00 | 0.00 | 81 | 1014.4 |
| 20260506130904 | 9 | 26 | 0.0 | 3.2 | 0.00 | 0.00 | 0.00 | 81 | 1014.4 |
| 20260506130404 | 9 | 324 | 0.0 | 0.0 | 0.00 | 0.00 | 0.00 | 81 | 1014.7 |
| 20260506125903 | 9 | 324 | 0.0 | 0.0 | 0.00 | 0.00 | 0.00 | 81 | 1014.7 |
| 20260506125404 | 8 | 354 | 0.0 | 4.8 | 0.00 | 0.00 | 0.00 | 81 | 1014.3 |
| 20260506124404 | 8 | 329 | 0.0 | 0.0 | 0.00 | 0.00 | 0.00 | 82 | 1014.2 |
| 20260506123904 | 8 | 321 | 0.0 | 0.0 | 0.00 | 0.00 | 0.00 | 82 | 1014.3 |
| 20260506123404 | 8 | 321 | 0.0 | 0.0 | 0.00 | 0.00 | 0.00 | 82 | 1014.1 |
| 20260506122904 | 8 | 321 | 0.0 | 0.0 | 0.00 | 0.00 | 0.00 | 82 | 1014.1 |
| 20260506122405 | 8 | 321 | 0.0 | 0.0 | 0.00 | 0.00 | 0.00 | 82 | 1014.1 |
| 20260506121903 | 8 | 322 | 0.0 | 0.0 | 0.00 | 0.00 | 0.00 | 82 | 1014.1 |
| 20260506121404 | 8 | 321 | 0.0 | 0.0 | 0.00 | 0.00 | 0.00 | 82 | 1013.8 |
| 20260506120404 | 8 | 321 | 0.0 | 0.0 | 0.00 | 0.00 | 0.00 | 82 | 1013.8 |
| 20260506115903 | 8 | 321 | 0.0 | 0.0 | 0.00 | 0.00 | 0.00 | 82 | 1013.9 |
| 20260506115404 | 7 | 321 | 0.0 | 0.0 | 0.00 | 0.00 | 0.00 | 82 | 1013.5 |
| 20260506114904 | 7 | 321 | 0.0 | 0.0 | 0.00 | 0.00 | 0.00 | 82 | 1013.5 |
| 20260506114403 | 8 | 321 | 0.0 | 0.0 | 0.00 | 0.00 | 0.00 | 82 | 1013.5 |
| 20260506113904 | 7 | 0 | 0.0 | 0.0 | 0.00 | 0.00 | 0.00 | 82 | 1013.0 |
| 20260506113404 | 7 | 0 | 0.0 | 0.0 | 0.00 | 0.00 | 0.00 | 82 | 1012.9 |
| 20260506112903 | 7 | 0 | 0.0 | 0.0 | 0.00 | 0.00 | 0.00 | 82 | 1012.9 |
| 20260506112405 | 7 | 0 | 0.0 | 0.0 | 0.00 | 0.00 | 0.00 | 82 | 1013.2 |
| 20260506111904 | 7 | 0 | 0.0 | 0.0 | 0.00 | 0.00 | 0.00 | 82 | 1013.5 |
| 20260506111404 | 7 | 0 | 0.0 | 0.0 | 0.00 | 0.00 | 0.00 | 82 | 1013.3 |
| 20260506110903 | 7 | 0 | 0.0 | 0.0 | 0.00 | 0.00 | 0.00 | 82 | 1013.2 |
| 20260506110404 | 7 | 0 | 0.0 | 0.0 | 0.00 | 0.00 | 0.00 | 82 | 1012.9 |
| 20260506105903 | 7 | 0 | 0.0 | 0.0 | 0.00 | 0.00 | 0.00 | 82 | 1012.9 |
| 20260506105404 | 7 | 0 | 0.0 | 0.0 | 0.00 | 0.00 | 0.00 | 82 | 1013.1 |
| 20260506104904 | 7 | 0 | 0.0 | 0.0 | 0.00 | 0.00 | 0.00 | 82 | 1012.9 |
| 20260506104403 | 7 | 0 | 0.0 | 0.0 | 0.00 | 0.00 | 0.00 | 82 | 1012.7 |
| 20260506103904 | 7 | 0 | 0.0 | 0.0 | 0.00 | 0.00 | 0.00 | 82 | 1012.8 |
| 20260506103404 | 7 | 0 | 0.0 | 0.0 | 0.00 | 0.00 | 0.00 | 82 | 1013.1 |
| 20260506102904 | 7 | 0 | 0.0 | 0.0 | 0.00 | 0.00 | 0.00 | 82 | 1012.7 |
| 20260506102403 | 7 | 0 | 0.0 | 0.0 | 0.00 | 0.00 | 0.00 | 82 | 1012.4 |
| 20260506101904 | 7 | 0 | 0.0 | 0.0 | 0.00 | 0.00 | 0.00 | 82 | 1012.3 |
| 20260506100904 | 7 | 0 | 0.0 | 0.0 | 0.00 | 0.00 | 0.00 | 82 | 1012.3 |
| 20260506100403 | 7 | 0 | 0.0 | 0.0 | 0.00 | 0.00 | 0.00 | 82 | 1012.2 |
| 20260506095904 | 7 | 10 | 0.0 | 0.0 | 0.00 | 0.00 | 0.00 | 82 | 1012.3 |
| 20260506095403 | 7 | 10 | 0.0 | 0.0 | 0.00 | 0.00 | 0.00 | 82 | 1012.0 |
| 20260506094403 | 7 | 18 | 0.0 | 0.0 | 0.00 | 0.00 | 0.00 | 82 | 1011.9 |
| 20260506093904 | 7 | 11 | 0.0 | 0.0 | 0.00 | 0.00 | 0.00 | 82 | 1011.8 |
| 20260506093404 | 7 | 11 | 0.0 | 0.0 | 0.00 | 0.00 | 0.00 | 82 | 1011.8 |
| 20260506092903 | 7 | 10 | 0.0 | 0.0 | 0.00 | 0.00 | 0.00 | 82 | 1011.6 |
| 20260506092404 | 7 | 12 | 0.0 | 0.0 | 0.00 | 0.00 | 0.00 | 82 | 1011.8 |
| 20260506091404 | 7 | 5 | 0.0 | 0.0 | 0.00 | 0.00 | 0.00 | 83 | 1011.9 |
| 20260506090904 | 7 | 14 | 0.0 | 0.0 | 0.00 | 0.00 | 0.00 | 83 | 1012.1 |
| 20260506090405 | 7 | 13 | 0.0 | 1.6 | 0.00 | 0.00 | 0.00 | 83 | 1012.0 |
| 20260506085905 | 7 | 1 | 1.6 | 9.7 | 0.00 | 0.00 | 0.00 | 83 | 1011.3 |
| 20260506085405 | 7 | 350 | 0.0 | 0.0 | 0.00 | 0.00 | 0.00 | 83 | 1011.9 |
| 20260506084905 | 7 | 354 | 0.0 | 0.0 | 0.00 | 0.00 | 0.00 | 83 | 1011.9 |
| 20260506084405 | 7 | 352 | 0.0 | 0.0 | 0.00 | 0.00 | 0.00 | 83 | 1011.7 |
| 20260506083906 | 7 | 355 | 0.0 | 0.0 | 0.00 | 0.00 | 0.00 | 83 | 1011.6 |
| 20260506083405 | 7 | 355 | 0.0 | 0.0 | 0.00 | 0.00 | 0.00 | 83 | 1011.6 |
| 20260506082905 | 7 | 353 | 0.0 | 0.0 | 0.00 | 0.00 | 0.00 | 83 | 1011.5 |
| 20260506082406 | 7 | 355 | 0.0 | 0.0 | 0.00 | 0.00 | 0.00 | 83 | 1011.4 |
| 20260506081905 | 7 | 351 | 0.0 | 0.0 | 0.00 | 0.00 | 0.00 | 83 | 1011.8 |
| 20260506080405 | 7 | 351 | 0.0 | 0.0 | 0.00 | 0.00 | 0.00 | 83 | 1011.4 |
| 20260506072406 | 7 | 0 | 1.6 | 8.0 | 0.00 | 0.00 | 0.00 | 83 | 1010.4 |
| 20260506071905 | 7 | 13 | 0.0 | 12.9 | 0.00 | 0.00 | 0.00 | 83 | 1009.7 |
| 20260506071405 | 7 | 7 | 8.0 | 16.1 | 0.00 | 0.00 | 0.00 | 83 | 1009.3 |
| 20260506070905 | 7 | 7 | 8.0 | 19.3 | 0.00 | 0.00 | 0.00 | 83 | 1009.2 |
| 20260506070405 | 7 | 7 | 8.0 | 19.3 | 0.00 | 0.00 | 0.00 | 83 | 1009.4 |
| 20260506062405 | 8 | 7 | 0.0 | 4.8 | 0.00 | 0.00 | 0.00 | 83 | 1010.9 |
| 20260506061904 | 8 | 355 | 0.0 | 8.0 | 0.00 | 0.00 | 0.00 | 83 | 1010.9 |
| 20260506061405 | 8 | 353 | 0.0 | 11.3 | 0.00 | 0.00 | 0.00 | 83 | 1011.1 |
| 20260506060905 | 8 | 10 | 0.0 | 0.0 | 0.00 | 0.00 | 0.00 | 83 | 1010.9 |
| 20260506060405 | 8 | 350 | 0.0 | 0.0 | 0.00 | 0.00 | 0.00 | 83 | 1010.7 |
| 20260506051405 | 9 | 355 | 1.6 | 9.7 | 0.00 | 0.00 | 0.00 | 83 | 1010.4 |
| 20260506050906 | 9 | 358 | 3.2 | 14.5 | 0.00 | 0.00 | 0.00 | 83 | 1010.3 |
| 20260506050405 | 9 | 354 | 1.6 | 9.7 | 0.00 | 0.00 | 0.00 | 83 | 1010.5 |
| 20260506044905 | 9 | 9 | 3.2 | 16.1 | 0.00 | 0.00 | 0.00 | 83 | 1009.9 |
| 20260506044405 | 9 | 12 | 3.2 | 12.9 | 0.00 | 0.00 | 0.00 | 83 | 1009.9 |
| 20260506043905 | 9 | 19 | 4.8 | 11.3 | 0.00 | 0.00 | 0.00 | 83 | 1010.0 |
| 20260506043405 | 9 | 1 | 1.6 | 19.3 | 0.00 | 0.00 | 0.00 | 83 | 1010.1 |
| 20260506042905 | 9 | 3 | 8.0 | 12.9 | 0.00 | 0.00 | 0.00 | 83 | 1010.1 |
| 20260506042405 | 9 | 333 | 0.0 | 11.3 | 0.00 | 0.00 | 0.00 | 83 | 1010.1 |
| 20260506041905 | 9 | 328 | 3.2 | 8.0 | 0.00 | 0.00 | 0.00 | 83 | 1010.1 |
| 20260506040904 | 9 | 358 | 0.0 | 0.0 | 0.00 | 0.00 | 0.00 | 83 | 1009.6 |
| 20260506040405 | 9 | 0 | 3.2 | 12.9 | 0.00 | 0.00 | 0.00 | 83 | 1009.6 |
| 20260506035905 | 9 | 33 | 3.2 | 16.1 | 0.00 | 0.00 | 0.00 | 83 | 1009.6 |
| 20260506035405 | 9 | 8 | 8.0 | 16.1 | 0.00 | 0.00 | 0.00 | 83 | 1009.1 |
| 20260506034905 | 9 | 13 | 1.6 | 4.8 | 0.00 | 0.00 | 0.00 | 83 | 1009.6 |
| 20260506034405 | 9 | 20 | 1.6 | 9.7 | 0.00 | 0.00 | 0.00 | 83 | 1009.4 |
| 20260506033905 | 9 | 0 | 0.0 | 4.8 | 0.00 | 0.00 | 0.00 | 83 | 1009.4 |
| 20260506033405 | 9 | 14 | 0.0 | 9.7 | 0.00 | 0.00 | 0.00 | 83 | 1009.4 |
| 20260506031904 | 10 | 355 | 1.6 | 12.9 | 0.00 | 0.00 | 0.00 | 83 | 1009.6 |
| 20260506031405 | 10 | 317 | 0.0 | 11.3 | 0.00 | 0.00 | 0.00 | 83 | 1009.7 |
| 20260506030905 | 10 | 19 | 3.2 | 12.9 | 0.00 | 0.00 | 0.00 | 83 | 1009.5 |
| 20260506030404 | 10 | 10 | 3.2 | 9.7 | 0.00 | 0.00 | 0.00 | 83 | 1009.2 |
| 20260506025905 | 10 | 25 | 0.0 | 11.3 | 0.00 | 0.00 | 0.00 | 83 | 1009.0 |
| 20260506025405 | 10 | 6 | 3.2 | 12.9 | 0.00 | 0.00 | 0.00 | 83 | 1008.8 |
| 20260506024906 | 10 | 8 | 6.4 | 14.5 | 0.00 | 0.00 | 0.00 | 83 | 1008.7 |
| 20260506024406 | 10 | 14 | 1.6 | 12.9 | 0.00 | 0.00 | 0.00 | 83 | 1008.8 |
| 20260506023904 | 10 | 74 | 0.0 | 1.6 | 0.00 | 0.00 | 0.00 | 83 | 1008.8 |
| 20260506023405 | 10 | 22 | 0.0 | 3.2 | 0.00 | 0.00 | 0.00 | 83 | 1008.9 |
| 20260506022905 | 10 | 19 | 0.0 | 0.0 | 0.00 | 0.00 | 0.00 | 83 | 1008.9 |
| 20260506021405 | 10 | 333 | 0.0 | 3.2 | 0.00 | 0.00 | 0.00 | 83 | 1009.0 |
| 20260506020906 | 10 | 338 | 0.0 | 0.0 | 0.00 | 0.00 | 0.00 | 83 | 1008.7 |
| 20260506020405 | 10 | 352 | 0.0 | 0.0 | 0.00 | 0.00 | 0.00 | 83 | 1008.6 |
| 20260506015904 | 10 | 352 | 1.6 | 11.3 | 0.00 | 0.00 | 0.00 | 83 | 1008.3 |
| 20260506015405 | 10 | 42 | 3.2 | 8.0 | 0.00 | 0.00 | 0.00 | 83 | 1008.0 |
| 20260506014405 | 10 | 32 | 0.0 | 0.0 | 0.00 | 0.00 | 0.00 | 83 | 1008.0 |
| 20260506013905 | 10 | 36 | 0.0 | 0.0 | 0.00 | 0.00 | 0.00 | 83 | 1008.0 |
| 20260506013404 | 10 | 29 | 1.6 | 4.8 | 0.00 | 0.00 | 0.00 | 83 | 1007.9 |
| 20260506012905 | 10 | 15 | 0.0 | 4.8 | 0.00 | 0.00 | 0.00 | 83 | 1007.7 |
| 20260506012405 | 10 | 19 | 6.4 | 12.9 | 0.00 | 0.00 | 0.00 | 83 | 1006.8 |
| 20260506011904 | 10 | 34 | 4.8 | 11.3 | 0.00 | 0.00 | 0.00 | 83 | 1007.1 |
| 20260506010905 | 10 | 9 | 3.2 | 11.3 | 0.00 | 0.00 | 0.00 | 83 | 1008.0 |
| 20260506010406 | 10 | 20 | 1.6 | 14.5 | 0.00 | 0.00 | 0.00 | 83 | 1008.1 |
| 20260506005904 | 10 | 25 | 4.8 | 12.9 | 0.00 | 0.00 | 0.00 | 83 | 1008.1 |
| 20260506005404 | 10 | 19 | 4.8 | 11.3 | 0.00 | 0.00 | 0.00 | 83 | 1008.0 |
| 20260506004905 | 10 | 20 | 4.8 | 9.7 | 0.00 | 0.00 | 0.00 | 83 | 1008.1 |
| 20260506004405 | 10 | 351 | 0.0 | 9.7 | 0.00 | 0.00 | 0.00 | 83 | 1008.0 |
| 20260506003904 | 10 | 16 | 0.0 | 8.0 | 0.00 | 0.00 | 0.00 | 83 | 1007.8 |
| 20260506003404 | 10 | 13 | 4.8 | 9.7 | 0.00 | 0.00 | 0.00 | 83 | 1007.6 |
| 20260506002904 | 10 | 46 | 0.0 | 8.0 | 0.00 | 0.00 | 0.00 | 83 | 1007.7 |
| 20260506002405 | 10 | 83 | 3.2 | 11.3 | 0.00 | 0.00 | 0.00 | 83 | 1007.7 |
| 20260506001905 | 10 | 26 | 1.6 | 12.9 | 0.00 | 0.00 | 0.00 | 83 | 1007.8 |
| 20260506001405 | 11 | 18 | 3.2 | 11.3 | 0.00 | 0.00 | 0.00 | 83 | 1007.6 |
| 20260506000406 | 11 | 18 | 1.6 | 8.0 | 0.00 | 0.00 | 0.00 | 83 | 1007.6 |
| 20260505235905 | 11 | 7 | 0.0 | 0.0 | 0.00 | 0.00 | 0.00 | 83 | 1007.7 |
| 20260505235404 | 11 | 21 | 1.6 | 9.7 | 0.00 | 0.00 | 0.00 | 83 | 1007.7 |
| 20260505234404 | 11 | 0 | 3.2 | 11.3 | 0.00 | 0.00 | 0.00 | 83 | 1007.6 |
| 20260505233405 | 11 | 353 | 0.0 | 11.3 | 0.00 | 0.00 | 0.00 | 83 | 1008.4 |
| 20260505232904 | 11 | 14 | 0.0 | 1.6 | 0.00 | 0.00 | 0.00 | 83 | 1008.2 |
| 20260505232405 | 11 | 10 | 1.6 | 11.3 | 0.00 | 0.00 | 0.00 | 83 | 1008.1 |
| 20260505231905 | 11 | 17 | 4.8 | 9.7 | 0.00 | 0.00 | 0.00 | 83 | 1008.1 |
| 20260505231404 | 11 | 19 | 3.2 | 11.3 | 0.00 | 0.00 | 0.00 | 83 | 1008.1 |
| 20260505230905 | 11 | 7 | 3.2 | 14.5 | 0.00 | 0.00 | 0.00 | 83 | 1008.0 |
| 20260505230405 | 11 | 12 | 3.2 | 12.9 | 0.00 | 0.00 | 0.00 | 83 | 1007.9 |
| 20260505224904 | 11 | 12 | 1.6 | 14.5 | 0.00 | 0.00 | 0.00 | 83 | 1008.2 |
| 20260505224404 | 11 | 21 | 1.6 | 8.0 | 0.00 | 0.00 | 0.00 | 83 | 1008.2 |
| 20260505223905 | 12 | 13 | 1.6 | 9.7 | 0.00 | 0.00 | 0.00 | 83 | 1008.2 |
| 20260505223404 | 12 | 354 | 1.6 | 8.0 | 0.00 | 0.00 | 0.00 | 83 | 1008.1 |
| 20260505222404 | 12 | 33 | 0.0 | 3.2 | 0.00 | 0.00 | 0.00 | 83 | 1007.9 |
| 20260505221905 | 13 | 336 | 0.0 | 8.0 | 0.00 | 0.00 | 0.00 | 83 | 1007.9 |
| 20260505221404 | 13 | 347 | 0.0 | 0.0 | 0.00 | 0.00 | 0.00 | 83 | 1007.9 |
| 20260505220904 | 13 | 342 | 0.0 | 4.8 | 0.00 | 0.00 | 0.00 | 83 | 1007.8 |
| 20260505220405 | 13 | 345 | 3.2 | 11.3 | 0.00 | 0.00 | 0.00 | 83 | 1007.7 |
| 20260505215905 | 13 | 338 | 1.6 | 4.8 | 0.00 | 0.00 | 0.00 | 83 | 1007.6 |
| 20260505215405 | 13 | 349 | 1.6 | 11.3 | 0.00 | 0.00 | 0.00 | 83 | 1007.6 |
| 20260505214904 | 14 | 323 | 1.6 | 12.9 | 0.00 | 0.00 | 0.00 | 83 | 1007.5 |
| 20260505214405 | 15 | 321 | 3.2 | 19.3 | 0.00 | 0.00 | 0.00 | 83 | 1007.4 |
| 20260505213405 | 16 | 313 | 1.6 | 11.3 | 0.00 | 0.00 | 0.00 | 83 | 1007.2 |
| 20260505212404 | 16 | 255 | 0.0 | 0.0 | 0.00 | 0.00 | 0.00 | 83 | 1007.2 |
| 20260505211904 | 16 | 254 | 0.0 | 9.7 | 0.00 | 0.00 | 0.00 | 83 | 1007.1 |
| 20260505211404 | 16 | 180 | 0.0 | 9.7 | 0.00 | 0.00 | 0.00 | 83 | 1007.1 |
| 20260505210905 | 16 | 216 | 1.6 | 11.3 | 0.00 | 0.00 | 0.00 | 83 | 1007.0 |
| 20260505210404 | 16 | 246 | 1.6 | 9.7 | 0.00 | 0.00 | 0.00 | 83 | 1007.0 |
| 20260505205905 | 16 | 232 | 1.6 | 4.8 | 0.00 | 0.00 | 0.00 | 83 | 1007.0 |
| 20260505204904 | 16 | 192 | 1.6 | 9.7 | 0.00 | 0.00 | 0.00 | 83 | 1007.1 |
| 20260505204404 | 16 | 180 | 0.0 | 3.2 | 0.00 | 0.00 | 0.00 | 83 | 1007.2 |
| 20260505203904 | 16 | 250 | 1.6 | 8.0 | 0.00 | 0.00 | 0.00 | 83 | 1007.2 |
| 20260505203404 | 16 | 210 | 1.6 | 9.7 | 0.00 | 0.00 | 0.00 | 83 | 1007.3 |
| 20260505202905 | 16 | 210 | 3.2 | 11.3 | 0.00 | 0.00 | 0.00 | 83 | 1007.3 |
| 20260505201904 | 16 | 169 | 1.6 | 8.0 | 0.00 | 0.00 | 0.00 | 83 | 1007.5 |
| 20260505201404 | 16 | 171 | 0.0 | 0.0 | 0.00 | 0.00 | 0.00 | 83 | 1007.5 |
| 20260505200905 | 16 | 236 | 1.6 | 8.0 | 0.00 | 0.00 | 0.00 | 83 | 1007.3 |
| 20260505200404 | 16 | 179 | 0.0 | 9.7 | 0.00 | 0.00 | 0.00 | 83 | 1007.3 |
| 20260505195905 | 17 | 168 | 0.0 | 1.6 | 0.00 | 0.00 | 0.00 | 83 | 1007.3 |
| 20260505195405 | 16 | 178 | 0.0 | 0.0 | 0.00 | 0.00 | 0.00 | 83 | 1007.3 |
| 20260505194904 | 16 | 178 | 0.0 | 8.0 | 0.00 | 0.00 | 0.00 | 83 | 1007.3 |
| 20260505194404 | 16 | 176 | 0.0 | 4.8 | 0.00 | 0.00 | 0.00 | 83 | 1007.3 |
| 20260505193904 | 17 | 189 | 0.0 | 0.0 | 0.00 | 0.00 | 0.00 | 83 | 1007.5 |
| 20260505193404 | 17 | 144 | 1.6 | 9.7 | 0.00 | 0.00 | 0.00 | 83 | 1007.6 |
| 20260505192905 | 17 | 227 | 0.0 | 4.8 | 0.00 | 0.00 | 0.00 | 83 | 1007.7 |
| 20260505192404 | 17 | 160 | 1.6 | 4.8 | 0.00 | 0.00 | 0.00 | 83 | 1007.7 |
| 20260505191904 | 17 | 189 | 3.2 | 9.7 | 0.00 | 0.00 | 0.00 | 83 | 1007.7 |
| 20260505191405 | 17 | 162 | 3.2 | 12.9 | 0.00 | 0.00 | 0.00 | 83 | 1007.6 |
| 20260505190904 | 16 | 165 | 3.2 | 9.7 | 0.00 | 0.00 | 0.00 | 83 | 1007.7 |
| 20260505190405 | 16 | 155 | 3.2 | 11.3 | 0.00 | 0.00 | 0.00 | 83 | 1007.9 |